Regional Weather Roundup
Issued by NWS Cleveland, OH

Home | Current Version | Previous Version | Text Only | Print | Product List | Glossary Off
Versions: 1 2 3 4 5 6 7 8 9 10 11 12 13 14 15 16 17 18 19 20 21 22 23 24 25 26 27 28 29 30 31 32 33 34 35 36 37 38 39 40 41 42 43 44 45 46 47 48 49 50

743
ASUS41 KCLE 252010
RWRCLE
OHIO REGIONAL WEATHER ROUNDUP
NATIONAL WEATHER SERVICE CLEVELAND, OH
300 PM EST SAT FEB 25 2017

NOTE: "FAIR" INDICATES FEW OR NO CLOUDS BELOW 12,000 FEET WITH NO
SIGNIFICANT WEATHER AND/OR OBSTRUCTIONS TO VISIBILITY.

OHZ001>008-015>018-024>027-034-035-043-044-252100-
   NORTHWEST OHIO

CITY           SKY/WX    TMP DP  RH WIND       PRES   REMARKS
DEFIANCE       CLOUDY    27  18  69 W13G20    29.82R WCI  16
FINDLAY        CLOUDY    31  19  61 W26       29.79R WCI  17
TOLEDO EXPRESS CLOUDY    30  19  63 W20G30    29.77R WCI  17
TOLEDO EXEC    CLOUDY    34  21  59 W26G33    29.77R WCI  21
LIMA           CLOUDY    28  20  71 W23G33    29.83R WCI  14
$$

OHZ009>014-019>023-028>033-038-089-252100-
   NORTHEAST OHIO

CITY           SKY/WX    TMP DP  RH WIND       PRES   REMARKS
CLE-HOPKINS    FLURRIES  37  24  59 W31G40    29.74R
CLE-LAKEFRONT  FLURRIES  36  26  67 W29G36    29.70R
CUY CO. ARPT   FLURRIES  37  27  65 W23G35    29.69R
LORAIN-ELYRIA  FLURRIES  33  23  66 W18G39    29.74R WCI  22
ASHTABULA      LGT SNOW  34  29  82 W20G28    29.68R WCI  23
AKRON-CANTON   FLURRIES  38  27  64 W14G31    29.70R
WOOSTER        LGT SNOW  33  26  75 W23G35    29.74R WCI  21
MANSFIELD      CLOUDY    31  23  72 W21G32    29.75R WCI  18
YOUNGSTOWN     FLURRIES  38  28  67 W18G28    29.67R
$$

OHZ042-051>053-060>062-070>072-077>081-252100-
  SOUTHWEST OHIO

CITY           SKY/WX    TMP DP  RH WIND       PRES   REMARKS
CINC-COVINGTON CLOUDY    33  19  56 W23G29    29.92R WCI  21
CINC-LUNKEN    CLOUDY    34  21  59 W20G30    29.95R WCI  23
HAMILTON       CLOUDY    32  19  58 W20G26    29.95R WCI  20
DAYTON         CLOUDY    29  19  66 W26G35    29.88R WCI  14
WRIGHT-PAT AFB FLURRIES  31  20  65 W18G31    29.88R WCI  19
DAYTON GENERAL CLOUDY    30  18  60 W17G26    29.89R WCI  18
WILMINGTON     CLOUDY    31  22  69 W22G36    29.88R WCI  18
$$

OHZ036-037-039>041-045>050-054>059-063>069-073>076-082>088-252100-
  CENTRAL AND SOUTHEAST OHIO

CITY           SKY/WX    TMP DP  RH WIND       PRES   REMARKS
COLUMBUS       CLOUDY    35  23  61 W24G33    29.83R WCI  23
OSU AIRPORT    CLOUDY    32  22  66 W18G30    29.84R WCI  20
BOLTON FIELD   CLOUDY    32  23  69 W14G24    29.85R WCI  22
RICKENBACK AFB CLOUDY    33  24  70 W21G33    29.85R WCI  21
NEWARK         CLOUDY    35  25  66 W22G30    29.81R WCI  23
MARION         CLOUDY    31  21  66 W18G30    29.81R WCI  19
LANCASTER      CLOUDY    35  25  66 W18G33    29.85R WCI  24
ZANESVILLE     CLOUDY    37  26  64 W15G26    29.79R
NEW PHILLY     NOT AVBL
$$




USA.gov is the U.S. government's official web portal to all federal, state and local government web resources and services.